Location: London
(51.5074°N, 0.1278°W)
Time: 14:55:13
(UTC+01:00)

ISS - Pass Details

Date: 01 April 2018
Orbit: 403 x 408 km, 51.6° (Epoch: 18 October)

Event Time Altitude Azimuth Distance (km) Brightness Sun altitude
Rises 22:14:16 0° 282° (WNW) 2,381 1.0 -23.1°
Reaches altitude 10° 22:16:23 10° 279° (W) 1,516 -0.2 -23.3°
Enters shadow 22:18:29 34° 266° (W) 726 -2.3 -23.6°
